Zurück zum Katalog

STARLINK-30778

AktivKommunikationVLEO
NORAD 58182·PAYLOAD·🇺🇸 United States

Gestartet Oct 30, 2023 von Cape Canaveral Space Force Station

Loading…

Nächste Überflüge (nächste 24 Stunden)

TLE

AktuellSource: CelesTrak SupGP

Epoche: Sep 14, 2026, 21:00 UTC

1 58182C 23167H   26257.87548611 -.00037731  00000+0 -13668-2 0  2570
2 58182  43.0024 154.8784 0001442 261.2497 319.3232 15.27593035    12

Verfolge STARLINK-30778 in Echtzeit mit AllMySat

Download on the App Store